TimeAKST,TemperatureF,Dew PointF,Humidity,Sea Level PressureIn,VisibilityMPH,Wind Direction,Wind SpeedMPH,Gust SpeedMPH,PrecipitationIn,Events,Conditions,WindDirDegrees,DateUTC
12:53 AM,10.0,6.1,84,29.21,1.8,NNE,18.4,-,0.02,Snow,Light Snow,30,2012-12-12 09:53:00
1:53 AM,7.0,3.0,84,29.19,1.0,NNE,21.9,28.8,0.00,Snow,Light Snow,30,2012-12-12 10:53:00
2:07 AM,6.8,3.2,85,29.18,1.2,NNE,21.9,-,0.00,Snow,Light Snow,20,2012-12-12 11:07:00
2:53 AM,10.0,6.1,84,29.16,1.5,NNE,20.7,-,0.02,Snow,Light Snow,20,2012-12-12 11:53:00
3:11 AM,10.4,5.0,79,29.15,2.0,NNE,18.4,-,0.00,Snow,Light Snow,30,2012-12-12 12:11:00
3:26 AM,10.4,5.0,79,29.14,4.0,NNE,11.5,20.7,0.00,Snow,Light Snow,30,2012-12-12 12:26:00
3:42 AM,10.4,5.0,79,29.14,7.0,North,15.0,-,0.00,Snow,Light Snow,10,2012-12-12 12:42:00
3:53 AM,10.0,3.9,76,29.14,7.0,North,15.0,-,0.00,Snow,Light Snow,10,2012-12-12 12:53:00
4:53 AM,10.9,3.9,73,29.12,9.0,North,13.8,-,0.00,,Overcast,10,2012-12-12 13:53:00
5:53 AM,10.0,3.0,73,29.12,8.0,NNE,16.1,-,0.00,Snow,Light Snow,20,2012-12-12 14:53:00
6:53 AM,10.9,1.9,67,29.11,9.0,North,10.4,-,0.00,Snow,Light Snow,360,2012-12-12 15:53:00
7:53 AM,10.9,3.0,70,29.11,8.0,North,11.5,-,0.00,Snow,Light Snow,360,2012-12-12 16:53:00
8:53 AM,10.0,1.9,70,29.10,7.0,North,10.4,-,0.00,Snow,Light Snow,10,2012-12-12 17:53:00
9:53 AM,8.1,3.0,80,29.10,5.0,North,11.5,-,0.00,Snow,Light Snow,350,2012-12-12 18:53:00
10:53 AM,8.1,1.0,73,29.10,7.0,North,11.5,-,0.00,Snow,Light Snow,10,2012-12-12 19:53:00
11:53 AM,8.1,-0.9,67,29.13,10.0,North,13.8,-,0.00,,Overcast,350,2012-12-12 20:53:00
12:53 PM,7.0,-0.0,73,29.11,9.0,North,10.4,20.7,N/A,,Overcast,360,2012-12-12 21:53:00
1:53 PM,8.1,-0.0,70,29.12,10.0,North,9.2,-,N/A,,Overcast,10,2012-12-12 22:53:00
2:53 PM,8.1,-2.0,64,29.13,10.0,North,10.4,-,0.00,,Overcast,10,2012-12-12 23:53:00
3:53 PM,6.1,-2.9,67,29.14,10.0,North,8.1,-,N/A,,Mostly Cloudy,350,2012-12-13 00:53:00
4:53 PM,3.9,-4.0,70,29.16,10.0,NNW,3.5,-,N/A,,Mostly Cloudy,330,2012-12-13 01:53:00
5:53 PM,7.0,-4.0,61,29.17,10.0,North,8.1,-,N/A,,Mostly Cloudy,360,2012-12-13 02:53:00
6:53 PM,5.0,-8.0,55,29.19,10.0,NE,5.8,-,N/A,,Partly Cloudy,40,2012-12-13 03:53:00
7:53 PM,3.9,-9.9,53,29.21,10.0,North,11.5,-,N/A,,Partly Cloudy,10,2012-12-13 04:53:00
8:53 PM,1.0,-11.0,57,29.25,10.0,NW,10.4,-,N/A,,Clear,310,2012-12-13 05:53:00
9:53 PM,3.0,-13.0,47,29.27,10.0,North,16.1,20.7,N/A,,Clear,350,2012-12-13 06:53:00
10:53 PM,1.9,-13.0,50,29.31,10.0,North,18.4,25.3,N/A,,Clear,350,2012-12-13 07:53:00
11:53 PM,1.0,-13.0,52,29.32,10.0,North,8.1,-,N/A,,Clear,10,2012-12-13 08:53:00